IRIDIUM 8 [+]

Last updated on Thu Nov 16 2017 00:18:57 GMT+0000 (Greenwich Mean Time)

1 24792U 97020A 17319.76651984 .01895693 -15603-5 11784-2 0 9994 2 24792 86.3663 254.0874 0214261 134.5795 227.3199 15.84343501 75074

Satellite not in orbit